Location: Observatoire
(46.1952°N, 5.3391°E)
Time: 01:31:55
(UTC+02:00)

DUCHIFAT 1 - Pass Details

Date: 01 May 2024
Orbit: 538 x 556 km, 98.1° (Epoch: 19 May)

Event Time Altitude Azimuth Distance (km) Brightness Sun altitude
Rises 05:46:52 0° 21° (NNE) 2,752 ? -6.7°
Reaches altitude 10° 05:49:09 10° 31° (NNE) 1,849 ? -6.3°
Maximum altitude 05:52:50 35° 98° (E) 909 ? -5.8°
Drops below altitude 10° 05:56:28 10° 165° (SSE) 1,822 ? -5.2°
Sets 05:58:42 0° 174° (S) 2,707 ? -4.9°
